RYR14KP LIMC-LICA

Flight info

Callsign RYR14KP
Flight time 1h 28m
Altitude 35000
Route ROBAS DCT LOGDI DCT EKDIR DCT KUGIX DCT EVINO DCT ARBUM
Aircraft B738/M-SDE2E3FGHIRWXY/LB1

Departure

Time 2026-05-05 17:49
Airport Milan Malpensa International Airport (LIMC)

Arrival

Time 2026-05-05 19:17
Airport Lamezia Terme Sant'Eufemia International Airport (LICA)
Time Latitude Longitude Altitude Speed Heading
2026-05-05 17:20 45.62814 8.71656 752 ft 0 kts 259°
2026-05-05 17:34 45.62815 8.71665 752 ft 4 kts 259°
2026-05-05 17:34 45.62820 8.71699 750 ft 4 kts 259°
2026-05-05 17:34 45.62824 8.71733 749 ft 4 kts 264°
2026-05-05 17:34 45.62827 8.71761 747 ft 4 kts 241°
2026-05-05 17:35 45.62840 8.71778 749 ft 4 kts 176°
2026-05-05 17:35 45.62864 8.71772 751 ft 4 kts 171°
2026-05-05 17:35 45.62874 8.71770 750 ft 3 kts 180°
2026-05-05 17:35 45.62853 8.71774 748 ft 1 kts 169°
2026-05-05 17:38 45.62851 8.71774 747 ft 1 kts 169°
2026-05-05 17:38 45.62830 8.71780 751 ft 4 kts 169°
2026-05-05 17:39 45.62793 8.71791 750 ft 7 kts 168°
2026-05-05 17:39 45.62740 8.71805 748 ft 9 kts 169°
2026-05-05 17:39 45.62674 8.71823 751 ft 11 kts 168°
2026-05-05 17:39 45.62597 8.71847 748 ft 13 kts 168°
2026-05-05 17:40 45.62504 8.71875 749 ft 15 kts 167°
2026-05-05 17:40 45.62399 8.71906 752 ft 16 kts 171°
2026-05-05 17:40 45.62280 8.71931 751 ft 18 kts 171°
2026-05-05 17:40 45.62151 8.71966 752 ft 20 kts 168°
2026-05-05 17:41 45.62012 8.72007 751 ft 21 kts 171°
2026-05-05 17:41 45.61872 8.72044 749 ft 20 kts 168°
2026-05-05 17:41 45.61744 8.72082 749 ft 18 kts 168°
2026-05-05 17:41 45.61626 8.72112 751 ft 17 kts 170°
2026-05-05 17:42 45.61504 8.72143 748 ft 19 kts 169°
2026-05-05 17:42 45.61366 8.72185 749 ft 22 kts 168°
2026-05-05 17:42 45.61213 8.72227 750 ft 22 kts 168°
2026-05-05 17:42 45.61067 8.72272 751 ft 21 kts 169°
2026-05-05 17:43 45.60932 8.72304 748 ft 19 kts 168°
2026-05-05 17:43 45.60810 8.72340 752 ft 17 kts 167°
2026-05-05 17:43 45.60701 8.72373 751 ft 15 kts 167°
2026-05-05 17:43 45.60640 8.72474 749 ft 13 kts 99°
2026-05-05 17:44 45.60630 8.72600 751 ft 12 kts 95°
2026-05-05 17:44 45.60623 8.72714 751 ft 11 kts 97°
2026-05-05 17:44 45.60613 8.72828 753 ft 13 kts 96°
2026-05-05 17:44 45.60602 8.72969 753 ft 16 kts 96°
2026-05-05 17:45 45.60592 8.73144 753 ft 19 kts 91°
2026-05-05 17:45 45.60672 8.73291 749 ft 21 kts 23°
2026-05-05 17:45 45.60815 8.73374 749 ft 23 kts 22°
2026-05-05 17:45 45.60976 8.73382 751 ft 25 kts 347°
2026-05-05 17:46 45.61148 8.73339 750 ft 26 kts 349°
2026-05-05 17:46 45.61329 8.73288 752 ft 27 kts 349°
2026-05-05 17:46 45.61518 8.73237 752 ft 28 kts 351°
2026-05-05 17:46 45.61616 8.73278 750 ft 10 kts 75°
2026-05-05 17:47 45.61624 8.73344 752 ft 2 kts 79°
2026-05-05 17:47 45.61627 8.73364 752 ft 5 kts 79°
2026-05-05 17:47 45.61626 8.73444 752 ft 12 kts 108°
2026-05-05 17:47 45.61585 8.73577 750 ft 18 kts 96°
2026-05-05 17:48 45.61659 8.73724 744 ft 22 kts 354°
2026-05-05 17:48 45.61833 8.73679 744 ft 38 kts 349°
2026-05-05 17:48 45.62325 8.73542 744 ft 105 kts 349°
2026-05-05 17:48 45.63233 8.73295 780 ft 155 kts 349°
2026-05-05 17:49 45.64325 8.73009 1319 ft 164 kts 349°
2026-05-05 17:49 45.65510 8.72750 1886 ft 176 kts 359°
2026-05-05 17:49 45.66725 8.73138 1819 ft 198 kts 38°
2026-05-05 17:49 45.67406 8.74854 2350 ft 200 kts 81°
2026-05-05 17:50 45.67565 8.76807 3141 ft 197 kts 81°
2026-05-05 17:50 45.68197 8.78577 3660 ft 210 kts 41°
2026-05-05 17:50 45.69391 8.79819 4218 ft 215 kts 38°
2026-05-05 17:50 45.70590 8.81137 4816 ft 219 kts 39°
2026-05-05 17:51 45.71659 8.82416 5336 ft 221 kts 52°
2026-05-05 17:51 45.72199 8.84423 5905 ft 218 kts 88°
2026-05-05 17:51 45.72298 8.86658 6226 ft 234 kts 93°
2026-05-05 17:51 45.71775 8.88845 6628 ft 238 kts 130°
2026-05-05 17:52 45.70693 8.90651 7185 ft 241 kts 132°
2026-05-05 17:52 45.69622 8.92510 7737 ft 244 kts 130°
2026-05-05 17:52 45.68574 8.94436 8307 ft 248 kts 129°
2026-05-05 17:52 45.67529 8.96429 8920 ft 253 kts 129°
2026-05-05 17:53 45.66486 8.98456 9708 ft 253 kts 129°
2026-05-05 17:53 45.65446 9.00490 10348 ft 257 kts 129°
2026-05-05 17:53 45.64372 9.02562 10955 ft 261 kts 132°
2026-05-05 17:53 45.63142 9.04605 11218 ft 282 kts 135°
2026-05-05 17:54 45.61765 9.06749 11397 ft 306 kts 136°
2026-05-05 17:54 45.60358 9.08918 11573 ft 327 kts 136°
2026-05-05 17:54 45.59314 9.10530 11780 ft 338 kts 136°
2026-05-05 17:54 45.57705 9.13029 12374 ft 345 kts 136°
2026-05-05 17:55 45.56078 9.15569 13120 ft 349 kts 136°
2026-05-05 17:55 45.54433 9.18142 13865 ft 353 kts 136°
2026-05-05 17:55 45.52769 9.20749 14546 ft 357 kts 136°
2026-05-05 17:55 45.51100 9.23363 15267 ft 360 kts 136°
2026-05-05 17:56 45.49467 9.25919 15958 ft 363 kts 137°
2026-05-05 17:56 45.47755 9.28597 16635 ft 367 kts 137°
2026-05-05 17:56 45.46029 9.31295 17317 ft 371 kts 137°
2026-05-05 17:56 45.44280 9.34026 18000 ft 375 kts 137°
2026-05-05 17:57 45.42512 9.36783 18574 ft 379 kts 137°
2026-05-05 17:57 45.40723 9.39569 19231 ft 383 kts 138°
2026-05-05 17:57 45.38922 9.42375 19843 ft 385 kts 138°
2026-05-05 17:57 45.37103 9.45203 20401 ft 389 kts 138°
2026-05-05 17:58 45.35267 9.48057 20940 ft 393 kts 138°
2026-05-05 17:58 45.33417 9.50929 21513 ft 396 kts 138°
2026-05-05 17:58 45.31549 9.53825 22085 ft 399 kts 138°
2026-05-05 17:58 45.29693 9.56700 22616 ft 402 kts 139°
2026-05-05 17:59 45.27769 9.59677 23141 ft 405 kts 139°
2026-05-05 17:59 45.25855 9.62636 23646 ft 409 kts 139°
2026-05-05 17:59 45.23949 9.65582 24068 ft 412 kts 139°
2026-05-05 17:59 45.22003 9.68585 24431 ft 416 kts 139°
2026-05-05 18:00 45.20031 9.71618 24790 ft 420 kts 140°
2026-05-05 18:00 45.17896 9.74399 25204 ft 414 kts 150°
2026-05-05 18:00 45.15552 9.76758 25650 ft 413 kts 153°
2026-05-05 18:00 45.13153 9.79028 26043 ft 416 kts 154°
2026-05-05 18:01 45.10727 9.81301 26429 ft 420 kts 154°
2026-05-05 18:01 45.08291 9.83607 26820 ft 423 kts 153°
2026-05-05 18:01 45.05843 9.85957 27217 ft 426 kts 153°
2026-05-05 18:01 45.03395 9.88331 27603 ft 429 kts 153°
2026-05-05 18:02 45.00926 9.90742 27982 ft 432 kts 153°
2026-05-05 18:02 44.98450 9.93165 28320 ft 435 kts 153°
2026-05-05 18:02 44.95966 9.95597 28677 ft 438 kts 153°
2026-05-05 18:02 44.93444 9.98063 28978 ft 441 kts 153°
2026-05-05 18:03 44.90908 10.00539 29242 ft 446 kts 153°
2026-05-05 18:03 44.88350 10.03034 29595 ft 448 kts 153°
2026-05-05 18:03 44.85779 10.05540 29955 ft 450 kts 153°
2026-05-05 18:03 44.83217 10.08034 30277 ft 451 kts 153°
2026-05-05 18:04 44.80638 10.10544 30691 ft 449 kts 153°
2026-05-05 18:04 44.78075 10.13035 31142 ft 447 kts 154°
2026-05-05 18:04 44.75521 10.15514 31549 ft 445 kts 154°
2026-05-05 18:04 44.72968 10.17986 31891 ft 445 kts 154°
2026-05-05 18:05 44.70418 10.20461 32268 ft 445 kts 154°
2026-05-05 18:05 44.67903 10.22985 32690 ft 444 kts 153°
2026-05-05 18:05 44.65408 10.25539 33035 ft 444 kts 153°
2026-05-05 18:05 44.62909 10.28108 33289 ft 446 kts 153°
2026-05-05 18:06 44.60403 10.30682 33623 ft 447 kts 153°
2026-05-05 18:06 44.58744 10.32382 33903 ft 446 kts 153°
2026-05-05 18:06 44.55399 10.35800 34341 ft 443 kts 153°
2026-05-05 18:06 44.52938 10.38305 34630 ft 443 kts 153°
2026-05-05 18:07 44.50440 10.40839 34883 ft 443 kts 153°
2026-05-05 18:07 44.47907 10.43403 35059 ft 446 kts 153°
2026-05-05 18:07 44.45383 10.45952 35044 ft 449 kts 153°
2026-05-05 18:08 44.40331 10.51060 35039 ft 445 kts 153°
2026-05-05 18:08 44.35392 10.56049 35058 ft 440 kts 153°
2026-05-05 18:09 44.30380 10.61086 35064 ft 441 kts 153°
2026-05-05 18:09 44.25421 10.66065 35077 ft 444 kts 153°
2026-05-05 18:10 44.20386 10.71110 35084 ft 446 kts 153°
2026-05-05 18:10 44.15342 10.76192 35076 ft 448 kts 153°
2026-05-05 18:11 44.10288 10.81297 35079 ft 450 kts 153°
2026-05-05 18:11 44.05208 10.86417 35054 ft 452 kts 153°
2026-05-05 18:12 44.00108 10.91543 35020 ft 453 kts 153°
2026-05-05 18:12 43.95001 10.96665 35016 ft 453 kts 153°
2026-05-05 18:13 43.89895 11.01774 34989 ft 452 kts 153°
2026-05-05 18:13 43.84809 11.06854 34985 ft 449 kts 153°
2026-05-05 18:14 43.79747 11.11897 34987 ft 447 kts 153°
2026-05-05 18:14 43.74696 11.16916 34993 ft 446 kts 153°
2026-05-05 18:15 43.69664 11.21908 34996 ft 445 kts 153°
2026-05-05 18:15 43.64631 11.26889 34996 ft 445 kts 153°
2026-05-05 18:16 43.59586 11.31873 34987 ft 446 kts 153°
2026-05-05 18:16 43.54542 11.36872 35008 ft 449 kts 151°
2026-05-05 18:17 43.49602 11.42249 35005 ft 455 kts 149°
2026-05-05 18:17 43.44687 11.47800 35000 ft 458 kts 148°
2026-05-05 18:18 43.39744 11.53350 35013 ft 459 kts 149°
2026-05-05 18:18 43.34800 11.58844 35005 ft 460 kts 149°
2026-05-05 18:19 43.29808 11.64361 35018 ft 461 kts 149°
2026-05-05 18:19 43.24807 11.69871 34988 ft 461 kts 149°
2026-05-05 18:20 43.19817 11.75360 35006 ft 459 kts 149°
2026-05-05 18:20 43.14843 11.80818 35015 ft 458 kts 149°
2026-05-05 18:21 43.09874 11.86259 35023 ft 457 kts 149°
2026-05-05 18:21 43.04914 11.91677 35024 ft 457 kts 149°
2026-05-05 18:22 42.99948 11.97092 35006 ft 456 kts 149°
2026-05-05 18:22 42.94989 12.02487 35024 ft 455 kts 149°
2026-05-05 18:23 42.90038 12.07863 35025 ft 455 kts 149°
2026-05-05 18:23 42.85086 12.13227 35040 ft 455 kts 149°
2026-05-05 18:24 42.80121 12.18594 35047 ft 456 kts 149°
2026-05-05 18:24 42.75161 12.23944 35036 ft 456 kts 149°
2026-05-05 18:25 42.70187 12.29298 35051 ft 456 kts 149°
2026-05-05 18:25 42.65229 12.34624 35033 ft 457 kts 149°
2026-05-05 18:26 42.60284 12.39926 35054 ft 457 kts 149°
2026-05-05 18:26 42.55285 12.45274 35038 ft 458 kts 149°
2026-05-05 18:27 42.50282 12.50615 35055 ft 459 kts 149°
2026-05-05 18:27 42.45262 12.55963 35067 ft 459 kts 149°
2026-05-05 18:28 42.37710 12.63987 35066 ft 461 kts 149°
2026-05-05 18:28 42.32669 12.69330 35077 ft 461 kts 149°
2026-05-05 18:29 42.27622 12.74668 35057 ft 460 kts 149°
2026-05-05 18:29 42.22627 12.79941 35054 ft 460 kts 148°
2026-05-05 18:30 42.17592 12.85245 35049 ft 459 kts 149°
2026-05-05 18:30 42.12549 12.90543 35058 ft 460 kts 149°
2026-05-05 18:31 42.07501 12.95836 35061 ft 461 kts 149°
2026-05-05 18:31 42.02436 13.01137 35046 ft 461 kts 149°
2026-05-05 18:32 41.97368 13.06432 35058 ft 462 kts 149°
2026-05-05 18:32 41.92324 13.11688 35066 ft 463 kts 149°
2026-05-05 18:33 41.87290 13.16923 35036 ft 460 kts 148°
2026-05-05 18:33 41.82242 13.22169 35075 ft 460 kts 148°
2026-05-05 18:34 41.77178 13.27412 35077 ft 462 kts 148°
2026-05-05 18:34 41.72076 13.32684 35080 ft 463 kts 148°
2026-05-05 18:35 41.66979 13.37942 35083 ft 464 kts 148°
2026-05-05 18:35 41.61857 13.43216 35079 ft 466 kts 148°
2026-05-05 18:36 41.56722 13.48493 35070 ft 466 kts 148°
2026-05-05 18:36 41.51600 13.53746 35064 ft 465 kts 148°
2026-05-05 18:37 41.46516 13.58948 35076 ft 465 kts 148°
2026-05-05 18:37 41.41389 13.64183 35079 ft 465 kts 148°
2026-05-05 18:38 41.36257 13.69412 35065 ft 464 kts 148°
2026-05-05 18:38 41.31157 13.74600 35063 ft 464 kts 148°
2026-05-05 18:39 41.26035 13.79798 35076 ft 463 kts 148°
2026-05-05 18:39 41.20917 13.84983 35077 ft 462 kts 148°
2026-05-05 18:40 41.15802 13.90152 35073 ft 462 kts 148°
2026-05-05 18:40 41.10684 13.95315 35067 ft 462 kts 147°
2026-05-05 18:41 41.05558 14.00475 35072 ft 463 kts 147°
2026-05-05 18:41 41.00465 14.05593 35077 ft 464 kts 147°
2026-05-05 18:42 40.95315 14.10756 35085 ft 465 kts 147°
2026-05-05 18:42 40.90154 14.15921 35079 ft 466 kts 147°
2026-05-05 18:43 40.84985 14.21083 35070 ft 466 kts 147°
2026-05-05 18:43 40.79803 14.26249 35076 ft 467 kts 147°
2026-05-05 18:44 40.75452 14.30579 35074 ft 467 kts 147°
2026-05-05 18:44 40.70259 14.35736 35072 ft 468 kts 147°
2026-05-05 18:45 40.65141 14.40808 35067 ft 468 kts 147°
2026-05-05 18:45 40.59965 14.45927 35068 ft 468 kts 147°
2026-05-05 18:46 40.54756 14.51070 35077 ft 468 kts 147°
2026-05-05 18:46 40.49553 14.56197 35075 ft 467 kts 147°
2026-05-05 18:47 40.44352 14.61310 35074 ft 467 kts 147°
2026-05-05 18:47 40.39264 14.66304 35062 ft 466 kts 147°
2026-05-05 18:48 40.34157 14.71306 35073 ft 465 kts 147°
2026-05-05 18:48 40.29048 14.76306 34821 ft 452 kts 147°
2026-05-05 18:49 40.26546 14.78750 34538 ft 445 kts 147°
2026-05-05 18:49 40.24071 14.81165 34170 ft 442 kts 147°
2026-05-05 18:49 40.21611 14.83560 33782 ft 439 kts 147°
2026-05-05 18:49 40.19169 14.85937 33386 ft 437 kts 147°
2026-05-05 18:50 40.16737 14.88301 33015 ft 434 kts 147°
2026-05-05 18:50 40.14325 14.90645 32645 ft 430 kts 148°
2026-05-05 18:50 40.11936 14.92964 32293 ft 427 kts 148°
2026-05-05 18:50 40.09552 14.95276 31923 ft 425 kts 148°
2026-05-05 18:51 40.07184 14.97570 31566 ft 422 kts 148°
2026-05-05 18:51 40.04835 14.99844 31219 ft 420 kts 148°
2026-05-05 18:51 40.02546 15.02059 30875 ft 418 kts 148°
2026-05-05 18:51 40.00214 15.04313 30529 ft 416 kts 148°
2026-05-05 18:52 39.97921 15.06527 30190 ft 415 kts 149°
2026-05-05 18:52 39.95605 15.08761 29792 ft 413 kts 149°
2026-05-05 18:52 39.93300 15.10982 29405 ft 411 kts 149°
2026-05-05 18:52 39.91095 15.13106 29028 ft 409 kts 148°
2026-05-05 18:53 39.88813 15.15302 28682 ft 406 kts 148°
2026-05-05 18:53 39.86607 15.17424 28317 ft 404 kts 148°
2026-05-05 18:53 39.84351 15.19592 27966 ft 402 kts 148°
2026-05-05 18:53 39.82140 15.21715 27620 ft 400 kts 148°
2026-05-05 18:54 39.79900 15.23863 27259 ft 398 kts 148°
2026-05-05 18:54 39.77674 15.25998 26907 ft 397 kts 148°
2026-05-05 18:54 39.75459 15.28120 26557 ft 395 kts 148°
2026-05-05 18:54 39.73250 15.30234 26212 ft 394 kts 148°
2026-05-05 18:55 39.71054 15.32352 25859 ft 393 kts 146°
2026-05-05 18:55 39.68934 15.34597 25513 ft 393 kts 143°
2026-05-05 18:55 39.66867 15.36910 25162 ft 392 kts 142°
2026-05-05 18:55 39.64821 15.39236 24819 ft 391 kts 142°
2026-05-05 18:56 39.62777 15.41561 24476 ft 390 kts 142°
2026-05-05 18:56 39.60737 15.43868 24130 ft 389 kts 142°
2026-05-05 18:56 39.58694 15.46163 23774 ft 388 kts 143°
2026-05-05 18:56 39.56650 15.48450 23385 ft 388 kts 143°
2026-05-05 18:57 39.54610 15.50725 23002 ft 386 kts 143°
2026-05-05 18:57 39.52580 15.52985 22638 ft 384 kts 143°
2026-05-05 18:57 39.50557 15.55234 22278 ft 382 kts 143°
2026-05-05 18:57 39.48546 15.57467 21932 ft 380 kts 143°
2026-05-05 18:58 39.46550 15.59683 21588 ft 378 kts 143°
2026-05-05 18:58 39.44586 15.61861 21243 ft 376 kts 143°
2026-05-05 18:58 39.42608 15.64051 20916 ft 374 kts 143°
2026-05-05 18:58 39.40639 15.66232 20575 ft 372 kts 143°
2026-05-05 18:59 39.38676 15.68403 20241 ft 371 kts 143°
2026-05-05 18:59 39.36721 15.70565 19909 ft 369 kts 143°
2026-05-05 18:59 39.34770 15.72721 19579 ft 368 kts 143°
2026-05-05 18:59 39.32827 15.74866 19247 ft 367 kts 143°
2026-05-05 19:00 39.30891 15.77003 18915 ft 366 kts 143°
2026-05-05 19:00 39.28953 15.79138 18590 ft 365 kts 143°
2026-05-05 19:00 39.27018 15.81262 18220 ft 365 kts 143°
2026-05-05 19:00 39.25072 15.83367 17855 ft 364 kts 143°
2026-05-05 19:01 39.23145 15.85444 17502 ft 362 kts 143°
2026-05-05 19:01 39.21223 15.87515 17160 ft 361 kts 143°
2026-05-05 19:01 39.19327 15.89631 16823 ft 360 kts 140°
2026-05-05 19:01 39.17662 15.91703 16519 ft 359 kts 138°
2026-05-05 19:02 39.15971 15.93897 16206 ft 358 kts 138°
2026-05-05 19:02 39.14227 15.96179 15864 ft 357 kts 137°
2026-05-05 19:02 39.12491 15.98440 15553 ft 355 kts 137°
2026-05-05 19:02 39.10820 16.00604 15219 ft 346 kts 137°
2026-05-05 19:03 39.09139 16.02767 14904 ft 338 kts 138°
2026-05-05 19:03 39.07497 16.04872 14599 ft 329 kts 138°
2026-05-05 19:03 39.05888 16.06928 14311 ft 324 kts 138°
2026-05-05 19:03 39.04283 16.08973 14017 ft 325 kts 138°
2026-05-05 19:04 39.02697 16.10991 13705 ft 325 kts 138°
2026-05-05 19:04 39.01087 16.13039 13371 ft 326 kts 138°
2026-05-05 19:04 38.99473 16.15091 13044 ft 327 kts 138°
2026-05-05 19:04 38.97855 16.17148 12720 ft 328 kts 137°
2026-05-05 19:05 38.96233 16.19210 12401 ft 328 kts 137°
2026-05-05 19:05 38.94610 16.21271 12087 ft 328 kts 137°
2026-05-05 19:05 38.92984 16.23333 11765 ft 328 kts 137°
2026-05-05 19:05 38.91359 16.25392 11449 ft 328 kts 137°
2026-05-05 19:06 38.89867 16.27611 11115 ft 331 kts 123°
2026-05-05 19:06 38.88737 16.30176 10826 ft 330 kts 119°
2026-05-05 19:06 38.87678 16.32749 10506 ft 331 kts 118°
2026-05-05 19:06 38.86601 16.35354 10216 ft 330 kts 119°
2026-05-05 19:07 38.85525 16.37922 10064 ft 324 kts 119°
2026-05-05 19:07 38.84461 16.40428 10033 ft 315 kts 120°
2026-05-05 19:07 38.83423 16.42852 10004 ft 305 kts 120°
2026-05-05 19:07 38.82411 16.45203 9909 ft 298 kts 120°
2026-05-05 19:08 38.81412 16.47519 9710 ft 296 kts 120°
2026-05-05 19:08 38.80416 16.49821 9459 ft 296 kts 120°
2026-05-05 19:08 38.79419 16.52124 9236 ft 294 kts 120°
2026-05-05 19:08 38.78504 16.54447 8940 ft 290 kts 108°
2026-05-05 19:09 38.78126 16.56977 8521 ft 289 kts 97°
2026-05-05 19:09 38.77874 16.59506 8138 ft 287 kts 92°
2026-05-05 19:09 38.78180 16.61982 7801 ft 279 kts 63°
2026-05-05 19:09 38.79273 16.63933 7604 ft 264 kts 39°
2026-05-05 19:10 38.80750 16.65254 7286 ft 256 kts 17°
2026-05-05 19:10 38.82470 16.65709 6930 ft 251 kts 358°
2026-05-05 19:10 38.84128 16.65230 6547 ft 245 kts 328°
2026-05-05 19:10 38.85384 16.63813 6168 ft 241 kts 304°
2026-05-05 19:11 38.86077 16.61886 5804 ft 239 kts 283°
2026-05-05 19:11 38.86380 16.59804 5411 ft 239 kts 280°
2026-05-05 19:11 38.86663 16.57662 4950 ft 242 kts 279°
2026-05-05 19:11 38.86921 16.55536 4586 ft 240 kts 278°
2026-05-05 19:12 38.87160 16.53479 4287 ft 233 kts 278°
2026-05-05 19:12 38.87391 16.51453 3983 ft 226 kts 278°
2026-05-05 19:12 38.87614 16.49485 3673 ft 219 kts 279°
2026-05-05 19:12 38.87830 16.47606 3382 ft 210 kts 279°
2026-05-05 19:13 38.88038 16.45791 3119 ft 200 kts 279°
2026-05-05 19:13 38.88238 16.44057 2848 ft 192 kts 280°
2026-05-05 19:13 38.88430 16.42394 2602 ft 186 kts 280°
2026-05-05 19:13 38.88619 16.40767 2363 ft 181 kts 279°
2026-05-05 19:14 38.88793 16.39255 2156 ft 165 kts 279°
2026-05-05 19:14 38.88954 16.37867 1926 ft 156 kts 279°
2026-05-05 19:14 38.89112 16.36506 1718 ft 154 kts 279°
2026-05-05 19:14 38.89269 16.35149 1526 ft 154 kts 280°
2026-05-05 19:15 38.89429 16.33778 1310 ft 156 kts 280°
2026-05-05 19:15 38.89588 16.32406 1100 ft 154 kts 280°
2026-05-05 19:15 38.89746 16.31047 902 ft 153 kts 280°
2026-05-05 19:15 38.89902 16.29703 696 ft 152 kts 280°
2026-05-05 19:16 38.90055 16.28364 491 ft 151 kts 279°
2026-05-05 19:16 38.90209 16.27030 261 ft 151 kts 280°
2026-05-05 19:16 38.90369 16.25715 47 ft 147 kts 281°
2026-05-05 19:16 38.90502 16.24562 31 ft 104 kts 279°
2026-05-05 19:17 38.90581 16.23882 29 ft 52 kts 278°
2026-05-05 19:17 38.90670 16.23593 33 ft 25 kts 306°
2026-05-05 19:17 38.90743 16.23488 32 ft 12 kts 329°
2026-05-05 19:17 38.90821 16.23502 30 ft 12 kts 37°
2026-05-05 19:18 38.90839 16.23590 31 ft 10 kts 97°
2026-05-05 19:18 38.90829 16.23679 31 ft 10 kts 99°
2026-05-05 19:18 38.90818 16.23770 31 ft 12 kts 99°
2026-05-05 19:18 38.90801 16.23904 31 ft 18 kts 98°
2026-05-05 19:19 38.90783 16.24067 31 ft 19 kts 98°
2026-05-05 19:19 38.90816 16.24224 31 ft 17 kts 53°
2026-05-05 19:19 38.90821 16.24362 31 ft 13 kts 99°
2026-05-05 19:19 38.90818 16.24386 31 ft 0 kts 97°
2026-05-05 19:20 38.90818 16.24390 31 ft 0 kts 96°
2026-05-05 19:20 38.90818 16.24394 31 ft 2 kts 95°
2026-05-05 19:20 38.90836 16.24431 30 ft 8 kts 29°
2026-05-05 19:21 38.90866 16.24440 31 ft 3 kts
2026-05-05 19:21 38.90869 16.24440 31 ft 0 kts
2026-05-05 19:22 38.90875 16.24448 29 ft 0 kts 54°